User: anonymous   Login
Location: Unspecified
(0.0000°N, 0.0000°E)
Time: 17:03:12
(UTC+00:00)
Language:

Kosmos-2239 - Orbit

View from above orbital plane
View from above orbital plane
View from above satellite
View from above satellite

Ground track
Ground track

The orbit data is extracted from the following two-line orbital elements,

1 22590U 93020A   18174.92858025 +.00000034 +00000-0 +19311-4 0  9998
2 22590 082.9305 145.4843 0023759 147.1191 240.5178 13.75391720266027
Epoch (UTC): 23 June 2018 22:17:09
Eccentricity: 0.0023759
inclination: 82.9305°
perigee height: 963 km
apogee height: 998 km
right ascension of ascending node: 145.4843°
argument of perigee: 147.1191°
revolutions per day: 13.75391720
mean anomaly at epoch: 240.5178°
orbit number at epoch: 26602

The dashed part of the orbit path shows where the satellite is in the earth's shadow,  

DLR